Temperature
27 23 22 23 23 24 25 26 26 27 29 28 27 26 26 26 26 24 23 22 22 22 22 22 22 21 21 20 20 20 19 19 19 19 19 18 18 18 18 18 18 18 18 18
24 23 24 25 26 26 26 26 26 27 28 28 27 26 26 25 25 24 23 22 22 22 22 21 21 21 21 20 20 20 19 19 19 19 19 19 19 18 18 18 18 18 18 18
23 24 26 27 26 27 26 26 27 27 27 27 26 25 24 25 25 24 24 23 23 23 22 21 21 21 20 20 20 19 19 19 19 19 19 18 18 18 18 18 18 18 18 18
24 25 27 27 27 27 26 27 28 28 26 24 25 23 23 23 23 23 23 23 23 22 22 22 21 21 20 20 20 19 19 19 19 18 18 18 18 18 18 18 18 18 18 18
24 26 26 26 27 28 27 28 28 28 26 24 23 23 22 23 23 22 22 23 23 23 23 22 22 21 21 20 20 19 19 19 18 18 18 18 18 18 18 18 18 18 18 18
24 26 27 27 28 28 28 27 25 22 21 22 23 23 22 21 22 23 23 23 23 22 22 22 21 21 20 20 19 19 19 19 18 18 18 18 18 18 18 18 18 18 18 18
24 25 27 28 27 27 27 23 22 22 20 21 22 23 22 23 23 23 23 23 22 22 22 22 21 21 20 20 19 19 19 18 18 18 18 18 18 18 18 18 18 18 18 18
23 23 26 27 27 26 26 22 21 22 22 21 22 23 23 24 24 25 24 23 22 22 22 22 22 21 21 20 19 19 19 18 18 18 18 18 17 17 18 18 18 18 18 18
22 23 26 28 28 27 26 23 21 20 21 21 21 23 23 24 24 23 23 22 21 22 22 22 22 21 21 20 19 19 19 19 18 18 18 18 17 17 17 18 18 18 18 18
23 23 25 27 28 27 26 24 20 21 21 21 22 23 22 23 23 22 21 21 21 21 21 21 21 21 20 20 19 19 19 19 18 18 18 18 18 17 17 17 17 17 17 17
23 23 23 25 27 26 26 25 22 19 19 20 21 21 23 22 22 22 22 22 22 22 21 21 21 21 20 20 19 19 19 18 18 18 18 18 18 17 17 17 17 17 17 17
22 21 21 23 25 27 26 25 21 22 21 19 20 21 23 22 22 22 22 22 22 22 22 22 21 20 20 20 19 19 19 18 18 18 18 18 18 17 17 17 17 17 17 17
22 21 21 22 23 25 26 25 22 20 19 19 20 22 23 22 22 23 22 22 22 22 22 21 21 20 20 19 19 19 19 18 18 18 18 18 18 17 17 17 17 17 17 17
23 20 21 22 22 24 26 26 24 21 20 20 21 22 22 22 22 22 22 22 22 22 22 21 21 20 20 20 19 19 19 18 18 18 18 17 17 17 17 17 17 17 17 17
22 21 22 23 24 26 26 26 26 24 22 22 22 22 22 22 21 22 22 22 22 21 21 21 21 21 20 20 19 19 19 18 18 18 17 17 17 17 17 17 17 17 16 16
19 22 23 24 25 25 25 26 26 26 25 24 23 22 22 22 23 22 22 22 21 21 22 22 21 21 20 20 20 19 19 18 18 18 17 17 17 17 17 16 16 16 16 16
19 20 20 21 23 23 23 24 25 25 25 24 23 22 21 21 21 21 22 22 21 22 22 22 21 21 21 20 20 19 19 18 18 18 17 17 17 16 16 16 16 16 16 16
19 18 17 19 22 22 21 23 25 24 24 23 23 22 21 21 21 22 23 22 22 22 22 22 21 21 20 20 19 19 19 18 18 17 17 17 17 16 16 16 16 16 15 15
18 18 17 17 19 21 22 24 24 24 22 22 21 21 20 21 20 20 21 23 23 22 22 21 21 21 20 20 19 19 18 18 17 17 17 17 16 16 16 16 15 15 15 15
18 17 17 17 20 20 21 23 25 23 20 21 20 20 20 20 18 18 20 21 22 21 21 21 20 20 19 19 19 18 18 17 17 17 17 16 16 16 16 16 15 15 14 14
18 17 17 17 19 19 21 23 23 21 20 20 20 20 20 19 19 19 20 20 21 21 20 20 20 19 19 18 18 18 17 17 17 16 16 16 16 16 15 15 15 14 14 14
17 16 16 16 18 18 20 21 20 19 20 20 20 20 20 19 19 19 19 20 20 20 19 19 19 18 18 18 17 17 17 16 16 16 16 15 15 15 15 15 14 14 14 13
16 16 15 16 16 17 19 19 20 20 20 20 20 20 20 19 18 19 19 19 19 19 18 18 18 17 17 17 17 17 16 16 15 15 15 15 15 14 14 14 14 13 13 13
16 15 15 15 16 17 18 19 20 20 20 20 20 20 20 19 18 18 18 18 18 18 17 17 17 17 16 16 16 16 15 15 15 15 14 14 14 13 13 13 13 13 13 12
16 15 15 15 15 16 18 18 19 19 19 19 19 19 19 19 18 18 18 17 17 17 17 16 16 16 16 15 15 15 14 14 14 14 13 13 13 13 12 12 12 12 12 12
15 15 14 14 15 14 16 18 18 19 19 18 18 18 18 18 18 17 17 17 16 16 16 16 15 15 15 14 14 14 13 13 13 13 13 12 12 12 12 12 11 11 11 11
Wind_Speed
2 1 6 10 9 9 8 8 10 10 5 1 2 4 5 7 10 12 11 11 11 11 10 10 10 11 11 10 11 11 10 9 8 5 5 5 4 4 4 5 9 11 11 11
2 8 13 10 10 9 8 8 8 8 6 2 1 0 3 5 10 14 16 14 13 10 9 10 10 10 10 11 10 10 10 10 9 7 5 4 4 3 4 4 6 10 11 11
9 9 6 8 11 9 9 6 6 6 6 7 4 5 3 2 3 8 12 13 13 15 14 12 11 10 10 10 11 11 10 10 9 8 5 4 3 2 2 3 4 6 10 11
9 11 11 10 10 7 8 9 5 3 4 5 3 1 6 3 2 6 8 10 12 12 12 10 10 10 10 9 9 9 9 9 8 8 8 8 7 6 6 5 5 5 8 9
8 6 7 10 11 8 9 8 2 2 2 3 4 2 6 1 3 6 10 11 12 12 13 12 11 10 8 8 8 8 8 8 8 9 10 9 7 5 4 5 6 5 5 6
10 8 6 8 8 7 5 3 8 7 5 3 4 3 6 5 9 10 10 11 11 11 11 10 8 8 7 7 7 8 8 8 8 9 9 9 9 7 7 6 7 5 4 4
8 10 8 7 6 6 2 6 5 6 5 5 5 2 7 8 8 10 12 11 11 11 12 11 10 9 9 8 8 8 8 7 7 8 8 9 9 9 9 7 7 6 5 4
5 9 7 6 9 7 5 10 8 5 5 6 5 2 6 5 3 7 9 11 10 10 10 11 11 10 9 9 8 8 8 7 7 7 7 7 8 6 5 6 6 6 6 6
7 8 7 8 7 10 7 6 10 8 2 2 5 4 5 2 7 9 10 11 11 10 9 9 10 10 10 9 8 8 8 6 7 7 7 6 7 7 6 6 5 5 5 5
10 6 10 7 2 6 10 9 7 6 4 3 4 4 5 5 7 9 10 12 10 9 9 8 8 9 8 8 7 7 7 7 6 7 7 6 6 6 6 5 6 6 6 6
11 8 8 5 2 7 5 6 6 6 7 6 3 7 7 9 10 10 11 11 11 11 10 9 8 8 8 7 7 7 6 5 5 6 6 6 5 5 5 5 5 5 5 5
11 8 8 9 8 7 8 9 9 6 5 6 5 7 6 8 9 9 9 10 11 11 11 9 8 7 7 7 7 7 6 6 5 6 6 6 6 5 5 4 4 4 4 5
10 8 4 7 8 4 3 5 7 7 6 6 5 7 3 4 6 8 10 11 11 10 10 8 8 8 8 8 7 7 7 7 6 6 6 6 5 5 5 4 4 3 4 4
8 6 9 11 8 3 1 2 4 7 5 6 8 8 5 5 8 9 11 12 12 10 9 9 9 9 9 8 8 7 6 6 7 6 6 6 5 5 5 4 4 4 4 4
6 5 6 6 6 3 1 4 3 4 9 9 10 10 12 11 11 12 12 13 13 12 11 11 11 10 9 8 8 7 7 6 7 7 6 6 5 4 4 3 3 3 3 4
4 4 3 1 2 3 2 5 6 5 5 7 7 7 8 8 8 10 12 14 15 14 13 12 11 11 10 10 9 8 7 7 7 7 6 6 5 5 4 4 4 4 4 4
2 4 4 1 2 5 4 4 4 6 5 6 8 9 8 8 11 14 13 13 13 13 12 12 11 11 10 10 9 8 8 7 7 7 6 6 6 6 5 5 5 5 4 5
5 4 4 3 3 4 9 6 3 3 4 2 5 7 12 10 7 6 8 11 11 11 11 11 10 9 8 7 8 7 7 7 7 7 6 7 7 6 5 5 5 5 4 5
6 7 4 4 4 6 7 5 2 1 4 3 6 9 10 12 9 6 3 8 10 9 9 9 9 8 8 8 8 8 7 6 7 7 7 7 7 7 7 6 5 5 5 6
5 6 6 4 5 7 7 6 2 5 1 3 5 10 10 8 6 3 3 7 9 8 8 9 9 8 8 7 8 8 7 6 6 6 6 6 7 8 8 7 6 5 6 6
2 3 5 5 4 6 6 5 3 3 6 3 4 8 7 4 6 8 8 8 9 9 9 9 9 8 6 6 8 8 6 5 5 6 6 6 6 7 7 7 6 7 7 7
5 4 5 5 4 7 6 4 3 5 3 4 6 7 8 10 11 10 10 10 10 10 9 8 9 7 5 5 7 7 5 4 5 6 7 6 6 6 7 7 6 7 8 8
2 5 5 6 6 4 1 4 3 4 6 5 6 8 12 12 10 10 9 9 8 9 8 8 9 8 6 5 6 6 3 5 7 7 6 6 6 6 7 8 8 7 6 6
4 1 3 3 1 2 5 6 6 6 6 5 7 9 11 11 10 9 8 8 7 7 8 7 8 8 5 4 4 4 4 5 7 7 6 6 6 6 6 5 5 6 6 6
3 2 3 2 0 4 5 5 5 7 9 9 8 8 8 11 10 8 7 7 7 8 7 7 7 6 5 4 4 4 3 5 7 7 6 6 6 6 6 5 4 4 3 5
1 2 4 3 4 3 1 1 5 8 7 8 9 9 7 8 9 9 8 6 7 7 7 7 6 5 4 4 4 3 3 5 7 6 6 5 6 6 7 7 7 11 8 8
Wind_Direction
241 127 236 237 220 223 257 283 292 287 294 66 153 176 189 165 152 153 155 160 164 168 171 162 155 154 152 155 158 159 158 161 156 156 159 159 164 166 169 181 178 174 174 170
344 257 242 243 255 254 265 280 291 301 321 13 81 168 197 177 167 165 164 166 166 161 162 161 159 159 163 165 166 163 164 166 169 170 167 164 158 172 175 182 183 183 179 174
217 244 250 246 261 268 277 263 271 291 335 11 56 2 340 322 134 162 161 161 163 167 168 168 166 168 167 172 174 173 170 174 177 169 152 143 130 125 152 176 182 187 182 181
244 252 261 264 261 249 268 262 262 319 15 317 53 305 292 284 147 157 161 162 171 171 166 166 170 174 177 180 176 169 170 174 178 172 169 166 173 179 185 180 183 184 184 184
245 248 246 249 248 236 236 249 276 354 58 356 360 118 280 308 182 186 178 174 175 172 170 173 177 177 173 171 171 169 169 177 181 180 179 175 181 184 169 166 175 183 190 191
256 272 249 239 256 246 241 16 22 39 63 343 277 167 262 227 203 191 182 176 172 169 168 169 168 166 168 167 169 171 172 181 182 181 178 178 180 177 169 175 181 186 192 195
289 283 266 258 276 304 82 83 26 355 6 259 281 198 247 253 208 183 178 174 167 164 165 167 167 173 173 172 173 175 176 183 182 180 182 182 181 180 183 185 186 185 190 195
234 274 254 228 203 207 190 140 158 197 228 278 323 260 267 271 154 143 154 152 158 163 168 171 174 175 174 173 173 178 181 184 183 181 184 179 176 179 188 189 186 189 196 200
205 254 271 255 215 173 179 178 172 149 191 289 288 288 317 41 107 129 142 146 163 165 167 171 170 173 168 167 172 174 176 180 183 182 175 174 176 182 189 189 187 193 198 200
182 252 284 282 247 203 173 160 103 120 162 247 283 258 224 204 160 151 149 164 169 157 160 169 170 170 163 162 164 166 166 174 174 170 174 177 179 183 183 183 191 194 198 194
176 203 281 338 212 206 167 149 129 135 155 158 234 269 229 198 184 167 169 171 164 159 162 167 170 164 155 149 151 159 159 156 159 167 169 166 167 168 170 180 189 188 189 183
179 169 238 257 255 216 184 180 152 160 213 169 174 262 268 191 178 162 162 163 162 162 164 161 156 152 149 154 157 162 165 163 168 169 165 164 164 166 169 179 186 181 178 179
163 149 199 311 326 337 185 179 166 147 140 164 176 253 287 156 155 156 154 154 155 161 161 156 154 158 161 163 164 167 170 170 168 161 161 161 163 167 171 177 175 171 173 172
140 133 172 200 211 221 260 245 159 136 163 203 210 218 238 201 171 168 158 155 157 159 159 159 161 163 166 168 166 166 169 169 163 157 158 164 171 173 177 174 169 169 165 164
110 136 163 184 197 172 249 289 267 199 194 192 215 201 211 202 180 170 164 154 157 164 165 165 167 167 167 164 165 165 167 163 160 156 162 172 168 158 150 143 142 137 138 148
63 117 107 46 38 53 338 304 294 268 226 206 186 216 218 181 155 161 166 160 163 170 170 168 166 166 167 167 166 165 165 164 157 158 164 160 148 143 140 139 134 128 129 125
56 105 104 243 358 37 296 252 266 282 264 203 205 214 166 153 165 171 168 162 165 168 165 165 167 170 169 168 165 164 164 158 154 156 154 149 145 142 141 139 130 130 126 119
134 110 129 144 83 229 245 251 231 289 311 266 169 168 160 155 151 148 151 154 157 157 157 160 159 153 151 151 151 152 148 148 150 150 151 149 145 143 139 134 132 127 119 118
142 133 120 129 180 260 288 293 258 189 330 336 136 139 131 121 89 49 103 139 142 141 144 141 138 136 134 136 139 136 139 142 145 150 153 154 150 146 141 136 131 125 119 114
99 112 122 135 166 219 247 279 277 104 353 308 140 145 146 127 125 179 154 129 126 121 122 123 122 116 119 126 126 125 134 138 149 156 155 151 150 151 150 144 136 125 121 117
57 79 141 162 196 246 263 299 45 133 217 252 151 149 144 137 153 150 125 111 114 110 111 115 114 115 121 124 122 125 131 143 148 140 134 133 136 139 137 132 128 125 120 115
175 164 181 159 184 243 296 34 115 191 182 127 113 120 114 112 115 120 115 113 115 111 109 113 111 108 110 119 125 127 137 143 134 129 128 127 128 131 130 125 122 123 126 123
171 185 184 181 202 247 327 115 131 129 122 124 121 125 123 120 120 118 113 113 113 116 116 113 116 113 102 103 119 130 136 134 131 127 128 128 125 124 130 132 132 128 127 131
320 357 112 91 44 30 52 70 71 84 100 104 116 122 123 121 124 119 117 112 107 105 112 114 113 113 110 105 104 112 125 133 135 135 134 132 134 129 125 128 137 141 143 143
276 14 66 91 191 40 29 47 72 73 83 89 92 98 112 119 119 119 116 113 110 107 105 109 115 120 120 112 103 102 117 130 133 136 137 134 134 134 124 108 92 126 137 158
262 153 145 199 220 159 202 33 84 86 88 99 100 88 93 110 115 112 109 106 105 107 109 109 109 112 117 118 118 117 127 137 140 142 144 143 139 136 131 123 92 58 74 96
Height
1505 1511 1517 1512 1510 1512 1511 1513 1512 1501 1488 1490 1494 1496 1494 1494 1496 1499 1502 1504 1506 1508 1511 1513 1516 1518 1520 1523 1525 1527 1530 1533 1536 1538 1540 1543 1546 1549 1552 1555 1558 1560 1562 1564
1511 1513 1504 1502 1503 1505 1507 1511 1508 1498 1488 1490 1496 1497 1493 1492 1493 1495 1498 1501 1504 1507 1509 1512 1515 1517 1519 1521 1523 1526 1528 1530 1533 1536 1538 1541 1544 1548 1550 1553 1556 1558 1560 1562
1512 1504 1497 1500 1502 1504 1504 1507 1504 1501 1493 1492 1497 1506 1501 1495 1494 1496 1497 1499 1501 1503 1506 1510 1513 1515 1518 1520 1522 1524 1526 1528 1531 1533 1536 1539 1542 1546 1548 1551 1553 1556 1558 1560
1505 1496 1497 1499 1499 1499 1508 1494 1494 1496 1505 1514 1506 1527 1510 1501 1498 1497 1498 1499 1500 1502 1505 1508 1511 1514 1516 1519 1521 1523 1524 1526 1529 1531 1533 1536 1538 1541 1544 1547 1551 1554 1556 1558
1501 1493 1495 1497 1493 1491 1495 1488 1490 1494 1504 1515 1512 1523 1518 1503 1502 1498 1496 1496 1498 1501 1504 1507 1510 1512 1515 1517 1519 1521 1523 1524 1526 1528 1530 1533 1536 1540 1543 1546 1549 1551 1554 1556
1494 1488 1489 1488 1483 1484 1484 1489 1496 1506 1516 1530 1517 1521 1521 1506 1498 1494 1493 1494 1497 1499 1503 1506 1509 1511 1513 1516 1518 1519 1521 1522 1524 1526 1528 1530 1533 1537 1540 1543 1546 1548 1551 1553
1498 1489 1483 1482 1486 1484 1487 1510 1532 1534 1542 1537 1516 1517 1515 1492 1487 1488 1490 1492 1495 1498 1501 1504 1507 1509 1512 1514 1516 1518 1519 1520 1522 1524 1526 1528 1531 1534 1537 1540 1543 1545 1548 1550
1508 1504 1483 1477 1482 1490 1491 1506 1533 1544 1545 1535 1518 1519 1504 1486 1484 1486 1489 1493 1497 1499 1501 1503 1505 1508 1510 1513 1514 1516 1517 1518 1520 1522 1524 1526 1529 1532 1535 1538 1540 1542 1545 1547
1504 1501 1476 1472 1471 1478 1489 1499 1503 1523 1528 1535 1527 1512 1497 1486 1485 1488 1490 1494 1497 1499 1501 1503 1505 1507 1509 1511 1513 1515 1516 1517 1518 1520 1522 1525 1527 1530 1532 1535 1537 1539 1542 1544
1488 1496 1481 1470 1468 1470 1476 1485 1507 1522 1536 1542 1528 1518 1512 1495 1491 1489 1491 1495 1497 1498 1500 1503 1505 1506 1508 1511 1512 1514 1515 1516 1517 1519 1521 1523 1525 1528 1530 1533 1534 1536 1538 1540
1479 1493 1487 1478 1476 1479 1479 1485 1498 1516 1523 1536 1538 1524 1490 1488 1486 1488 1489 1491 1494 1496 1499 1501 1504 1506 1508 1510 1512 1513 1514 1515 1517 1518 1520 1522 1524 1526 1528 1530 1532 1533 1535 1537
1471 1487 1496 1485 1470 1465 1471 1478 1493 1512 1517 1522 1529 1518 1480 1480 1481 1484 1487 1490 1492 1496 1498 1500 1504 1506 1508 1510 1512 1513 1514 1515 1516 1517 1519 1521 1523 1524 1526 1528 1529 1531 1532 1534
1466 1485 1500 1497 1486 1472 1471 1474 1481 1493 1507 1518 1524 1511 1479 1479 1481 1483 1486 1488 1492 1495 1497 1500 1503 1506 1508 1509 1511 1512 1513 1515 1516 1517 1519 1520 1521 1523 1524 1526 1527 1528 1529 1531
1455 1476 1488 1497 1492 1477 1474 1472 1475 1490 1506 1510 1505 1497 1485 1481 1481 1482 1483 1486 1489 1494 1497 1499 1502 1505 1507 1509 1510 1511 1513 1514 1516 1517 1518 1519 1520 1521 1523 1524 1525 1526 1527 1528
1454 1470 1470 1472 1469 1467 1469 1470 1471 1479 1486 1494 1489 1487 1480 1477 1477 1479 1481 1483 1488 1492 1495 1498 1501 1504 1506 1508 1509 1510 1512 1513 1514 1516 1517 1518 1519 1520 1521 1522 1523 1524 1525 1526
1457 1466 1467 1470 1465 1466 1469 1468 1468 1469 1470 1474 1476 1479 1469 1470 1474 1478 1480 1482 1485 1489 1493 1496 1499 1502 1504 1506 1508 1509 1510 1512 1513 1514 1516 1517 1518 1519 1520 1521 1522 1522 1523 1524
1463 1468 1478 1482 1471 1471 1480 1469 1467 1467 1463 1466 1474 1471 1467 1471 1472 1474 1477 1480 1483 1486 1490 1493 1497 1500 1502 1504 1506 1508 1509 1511 1512 1513 1515 1516 1517 1518 1519 1520 1520 1521 1522 1523
1464 1472 1482 1484 1479 1492 1479 1460 1459 1462 1462 1459 1459 1461 1463 1466 1470 1472 1474 1477 1481 1485 1488 1491 1495 1498 1501 1503 1505 1507 1508 1509 1510 1512 1513 1514 1515 1516 1517 1518 1519 1520 1520 1521
1457 1468 1481 1490 1492 1485 1469 1459 1458 1463 1467 1460 1459 1461 1464 1466 1470 1475 1476 1477 1480 1483 1486 1490 1493 1496 1499 1501 1503 1505 1507 1508 1509 1510 1511 1513 1514 1515 1516 1516 1517 1518 1518 1519
1457 1462 1477 1486 1489 1492 1473 1456 1453 1459 1473 1462 1460 1461 1463 1465 1475 1479 1476 1477 1480 1483 1487 1489 1492 1496 1498 1500 1502 1504 1505 1507 1507 1508 1510 1511 1512 1513 1514 1515 1516 1517 1517 1518
1467 1471 1477 1483 1486 1478 1461 1454 1454 1473 1474 1463 1460 1460 1462 1464 1468 1473 1475 1477 1480 1483 1487 1490 1492 1495 1497 1499 1500 1502 1503 1504 1505 1507 1508 1509 1510 1511 1512 1513 1514 1515 1516 1516
1469 1475 1478 1482 1486 1482 1458 1455 1461 1465 1461 1461 1461 1462 1463 1465 1469 1472 1474 1477 1480 1483 1486 1489 1491 1494 1496 1498 1499 1499 1500 1502 1503 1505 1506 1507 1509 1510 1511 1511 1512 1513 1514 1515
1465 1467 1468 1471 1473 1464 1457 1457 1459 1458 1460 1461 1462 1464 1465 1467 1470 1473 1475 1478 1481 1483 1486 1488 1490 1493 1495 1496 1497 1498 1499 1500 1501 1503 1504 1505 1506 1507 1509 1510 1511 1511 1513 1514
1462 1459 1462 1466 1465 1462 1460 1459 1460 1460 1461 1463 1464 1466 1466 1468 1472 1474 1476 1478 1481 1483 1485 1487 1490 1492 1493 1494 1495 1496 1497 1498 1499 1500 1501 1503 1504 1505 1506 1508 1509 1510 1511 1512
1462 1461 1463 1466 1465 1462 1462 1462 1462 1462 1463 1465 1467 1468 1470 1470 1473 1475 1477 1479 1480 1482 1485 1487 1488 1490 1491 1492 1493 1494 1495 1495 1496 1497 1499 1500 1501 1503 1504 1505 1507 1508 1510 1511
1461 1462 1465 1467 1463 1463 1464 1464 1464 1464 1466 1467 1468 1470 1472 1472 1473 1475 1477 1479 1480 1482 1484 1485 1486 1488 1489 1489 1490 1491 1492 1493 1494 1495 1496 1497 1499 1500 1501 1503 1505 1507 1509 1511